Regional Weather Roundup
Issued by NWS

Home | Current Version | Previous Version | Graphics & Text | Print | Product List | Glossary On
Versions: 1 2 3 4 5 6 7 8 9 10 11 12 13 14 15 16 17 18 19 20 21 22 23 24 25 26 27 28 29 30 31 32 33 34 35 36 37 38 39 40 41 42 43 44 45 46 47 48 49 50
000
ASUS43 KOAX 201902
RWRNE

WEATHER ROUNDUP FOR NEBRASKA
NATIONAL WEATHER SERVICE OMAHA NE
200 PM CDT MON OCT 20 2014

NOTES: SATELLITE DATA IS BEING USED TO AUGMENT CLOUD COVER ABOVE
       12000 FEET.
       "FAIR" INDICATES FEW OR NO CLOUDS BELOW 12,000 FEET WITH NO
       SIGNIFICANT WEATHER AND/OR OBSTRUCTIONS TO VISIBILITY.

  * THESE STATIONS DO NOT REPORT WEATHER SUCH AS RAIN...SNOW OR FOG.

NEZ001>004-019>022-054>056-202000-
NEBRASKA PANHANDLE

CITY           SKY/WX    TMP DP  RH WIND       PRES   REMARKS
SCOTTSBLUFF    SUNNY     78  48  34 S12       30.05F
ALLIANCE       SUNNY     74  38  27 S21G28    30.07F
CHADRON        SUNNY     78  43  28 S18       30.00F
KIMBALL        SUNNY     72  40  31 S15G23    30.10F
SIDNEY         SUNNY     73  37  27 S16       30.11F
$$

NEZ057>060-069>072-079>082-202000-
SOUTHWEST NEBRASKA

CITY           SKY/WX    TMP DP  RH WIND       PRES   REMARKS
NORTH PLATTE   SUNNY     75  42  30 SW10      30.10F
IMPERIAL       SUNNY     74  38  27 S13       30.11F
LEXINGTON      SUNNY     74  41  29 S6        30.11F
MCCOOK         SUNNY     76  43  30 VRB5      30.11F
OGALLALA       SUNNY     77  41  27 S8        30.10F
$$

NEZ005>010-023>029-035>040-094-202000-
NORTH CENTRAL NEBRASKA

CITY           SKY/WX    TMP DP  RH WIND       PRES   REMARKS
VALENTINE      SUNNY     75  38  26 S13       30.06F
AINSWORTH      SUNNY     72  39  29 S8        30.08F
BROKEN BOW     SUNNY     73  44  35 SE8       30.10F
O`NEILL        SUNNY     69  40  34 CALM      30.10F
ORD            SUNNY     70  41  34 E6        30.09F
THEDFORD       SUNNY     76  41  28 S8        30.09F
$$

NEZ041-046>049-061>064-073>077-083>087-202000-
SOUTH CENTRAL NEBRASKA

CITY           SKY/WX    TMP DP  RH WIND       PRES   REMARKS
GRAND ISLAND   SUNNY     70  40  33 E5        30.10F
AURORA         SUNNY     71  36  28 SE5       30.09F HAZE
HASTINGS       SUNNY     72  40  31 E8        30.10F
HEBRON         SUNNY     73  38  28 E5        30.08F
HOLDREGE       SUNNY     72  39  30 CALM      30.10F
KEARNEY *      SUNNY     72  43  35 E6        30.11F
YORK           SUNNY     68  41  37 CALM      30.10F
$$

NEZ011>018-030>034-042>045-202000-
NORTHEAST NEBRASKA

CITY           SKY/WX    TMP DP  RH WIND       PRES   REMARKS
NORFOLK        SUNNY     69  37  30 CALM      30.08F
ALBION         SUNNY     69  37  30 CALM      30.09F
COLUMBUS *     SUNNY     70  37  30 N5        30.10F
FREMONT        SUNNY     70  37  30 NW5       30.08F
TEKAMAH        SUNNY     72  38  29 W9        30.06F
WAYNE          SUNNY     70  37  29 N5        30.08F
$$

NEZ050>053-065>068-078-088>093-202000-
SOUTHEAST NEBRASKA

CITY           SKY/WX    TMP DP  RH WIND       PRES   REMARKS
LINCOLN        SUNNY     72  38  29 NE3       30.09F
OMAHA EPPLEY   SUNNY     70  37  29 VRB7      30.07F
BEATRICE       SUNNY     71  44  38 N3        30.08F
FALLS CITY     SUNNY     73  41  31 NW9       30.05F
NEBRASKA CITY  SUNNY     69  31  24 NE6       30.07F
PLATTSMOUTH    SUNNY     69  32  25 N6        30.07F
$$

NEZ044-045-051>053-067-202000-
OMAHA AREA

CITY           SKY/WX    TMP DP  RH WIND       PRES   REMARKS
OMAHA EPPLEY   SUNNY     70  37  29 VRB7      30.07F
FREMONT        SUNNY     70  37  30 NW5       30.08F
MILLARD        SUNNY     70  42  36 W3        30.07F
OFFUTT AFB     SUNNY     71  41  34 N3        30.07F
PLATTSMOUTH    SUNNY     69  32  25 N6        30.07F
WAHOO          FAIR      71  33  24 N6        30.07F
$$



USA.gov is the U.S. government's official web portal to all federal, state and local government web resources and services.